Location: McFarlands Corners
(41.4117°N, 81.3382°W)
Time: 14:27:37
(UTC+00:00)

Tiros 1 despin weight - Pass Details

Date: 13 November 2024
Orbit: 570 x 610 km, 48.2° (Epoch: 01 December)

Event Time Altitude Azimuth Distance (km) Brightness Sun altitude
Exits shadow 10:41:59 33° 287° (WNW) 998 ? -17.0°
Maximum altitude 10:43:31 49° 341° (NNW) 764 ? -16.7°
Drops below altitude 10° 10:47:48 10° 57° (ENE) 1,914 ? -15.9°
Sets 10:50:08 0° 63° (ENE) 2,808 ? -15.5°
